Location: Peach Mountain Observatory
(42.3967°N, 83.9367°W)
Time: 15:59:31
(UTC-05:00)

S-56A Canister/Altair - Pass Details

Date: 02 February 2020
Orbit: 633 x 2500 km, 38.9° (Epoch: 26 February)

Event Time Altitude Azimuth Distance (km) Brightness Sun altitude
Rises 23:55:31 0° 275° (W) 3,457 - -62.1°
Reaches altitude 10° 23:59:05 10° 256° (WSW) 2,279 - -62.4°
Maximum altitude 00:02:19 17° 216° (SW) 1,696 - -62.7°
Drops below altitude 10° 00:05:15 10° 174° (S) 2,025 - -62.9°
Sets 00:08:09 0° 153° (SSE) 2,904 - -63.1°
